Location: *
(45.8589°N, 4.7139°E)
Time: 03:32:17
(UTC+00:00)

Cosmos 2058 - Pass Details

Date: 09 April 2020
Orbit: 563 x 583 km, 82.5° (Epoch: 02 June)

Event Time Altitude Azimuth Distance (km) Brightness Sun altitude
Rises 20:50:54 0° 345° (NNW) 2,775 7.3 -23.9°
Reaches altitude 10° 20:53:08 10° 340° (NNW) 1,875 6.4 -24.2°
Maximum altitude 20:57:06 48° 266° (W) 750 3.6 -24.7°
Enters shadow 20:57:34 46° 244° (WSW) 775 3.6 -24.8°
